Location: Unspecified
(43.4680°N, 87.1740°E)
Time: 20:44:30
(UTC+00:00)

Cosmos 1766 - Pass Details

Date: 17 April 2021
Orbit: 522 x 542 km, 82.5° (Epoch: 11 May)

Event Time Altitude Azimuth Distance (km) Brightness Sun altitude
Rises 21:58:50 0° 352° (N) 2,711 7.2 -15.0°
Reaches altitude 10° 22:01:00 10° 352° (N) 1,815 6.3 -14.7°
Maximum altitude 22:05:00 87° 85° (E) 549 3.3 -14.1°
Drops below altitude 10° 22:08:58 10° 172° (S) 1,800 5.7 -13.4°
Sets 22:11:07 0° 173° (S) 2,686 6.6 -13.1°
